| time (UTC) | temp F | wind direction | speed MPH | gust MPH | rain 1hr in | rain 24hr in | rain mn in | humidity % | barometer mb |
| 20260903133736 | 80 | 203 | 6.0 | 10.0 | 0.00 | 0.00 | 0.00 | 76 | 1015.2 |
| 20260903132715 | 80 | 203 | 6.0 | 8.0 | 0.00 | 0.00 | 0.00 | 77 | 1015.2 |
| 20260903131715 | 80 | 180 | 5.0 | 7.0 | 0.00 | 0.00 | 0.00 | 77 | 1015.2 |
| 20260903130715 | 79 | 203 | 4.0 | 9.0 | 0.00 | 0.00 | 0.00 | 78 | 1015.1 |
| 20260903125757 | 78 | 158 | 7.0 | 12.0 | 0.00 | 0.00 | 0.00 | 79 | 1015.1 |
| 20260903124738 | 78 | 158 | 6.0 | 8.0 | 0.00 | 0.00 | 0.00 | 81 | 1015.1 |
| 20260903123717 | 77 | 180 | 6.0 | 9.0 | 0.00 | 0.00 | 0.00 | 82 | 1015.1 |
| 20260903122715 | 76 | 158 | 4.0 | 6.0 | 0.00 | 0.00 | 0.00 | 82 | 1015.1 |
| 20260903121717 | 76 | 180 | 3.0 | 5.0 | 0.00 | 0.00 | 0.00 | 83 | 1015.1 |
| 20260903120717 | 75 | 158 | 4.0 | 5.0 | 0.00 | 0.00 | 0.00 | 83 | 1014.9 |
| 20260903115717 | 75 | 158 | 2.0 | 4.0 | 0.00 | 0.00 | 0.00 | 83 | 1014.8 |
| 20260903114717 | 75 | 180 | 2.0 | 5.0 | 0.00 | 0.00 | 0.00 | 83 | 1014.7 |
| 20260903113717 | 76 | 158 | 3.0 | 6.0 | 0.00 | 0.00 | 0.00 | 83 | 1014.6 |
| 20260903112717 | 76 | 158 | 4.0 | 7.0 | 0.00 | 0.00 | 0.00 | 83 | 1014.6 |
| 20260903111717 | 76 | 203 | 3.0 | 6.0 | 0.00 | 0.00 | 0.00 | 83 | 1014.5 |
| 20260903110717 | 76 | 203 | 2.0 | 5.0 | 0.00 | 0.00 | 0.00 | 83 | 1014.5 |
| 20260903105717 | 76 | 180 | 3.0 | 6.0 | 0.00 | 0.00 | 0.00 | 83 | 1014.5 |
| 20260903104718 | 76 | 203 | 2.0 | 5.0 | 0.00 | 0.00 | 0.00 | 83 | 1014.4 |
| 20260903103837 | 76 | 158 | 4.0 | 6.0 | 0.00 | 0.00 | 0.00 | 83 | 1014.4 |
| 20260903102717 | 75 | 158 | 3.0 | 5.0 | 0.00 | 0.00 | 0.00 | 83 | 1014.4 |
| 20260903101717 | 75 | 158 | 3.0 | 6.0 | 0.00 | 0.00 | 0.00 | 83 | 1014.3 |
| 20260903100737 | 75 | 158 | 2.0 | 4.0 | 0.00 | 0.00 | 0.00 | 83 | 1014.4 |
| 20260903095717 | 76 | 180 | 2.0 | 3.0 | 0.00 | 0.00 | 0.00 | 83 | 1014.4 |
| 20260903094717 | 76 | 158 | 4.0 | 5.0 | 0.00 | 0.00 | 0.00 | 83 | 1014.5 |
| 20260903093717 | 76 | 158 | 2.0 | 4.0 | 0.00 | 0.00 | 0.00 | 82 | 1014.4 |
| 20260903092717 | 76 | 135 | 1.0 | 3.0 | 0.00 | 0.00 | 0.00 | 82 | 1014.4 |
| 20260903091717 | 76 | 180 | 2.0 | 3.0 | 0.00 | 0.00 | 0.00 | 82 | 1014.4 |
| 20260903090717 | 76 | 158 | 1.0 | 2.0 | 0.00 | 0.00 | 0.00 | 82 | 1014.5 |
| 20260903085737 | 76 | 158 | 3.0 | 5.0 | 0.00 | 0.00 | 0.00 | 82 | 1014.4 |
| 20260903084717 | 77 | 135 | 3.0 | 5.0 | 0.00 | 0.00 | 0.00 | 82 | 1014.4 |
| 20260903083716 | 77 | 158 | 3.0 | 4.0 | 0.00 | 0.00 | 0.00 | 82 | 1014.3 |
| 20260903082717 | 77 | 158 | 4.0 | 6.0 | 0.00 | 0.00 | 0.00 | 81 | 1014.3 |
| 20260903081716 | 77 | 135 | 3.0 | 6.0 | 0.00 | 0.00 | 0.00 | 81 | 1014.3 |
| 20260903080716 | 77 | 158 | 3.0 | 5.0 | 0.00 | 0.00 | 0.00 | 81 | 1014.3 |
| 20260903075716 | 78 | 158 | 3.0 | 4.0 | 0.00 | 0.00 | 0.00 | 81 | 1014.4 |
| 20260903074716 | 78 | 158 | 3.0 | 5.0 | 0.00 | 0.00 | 0.00 | 80 | 1014.3 |
| 20260903073716 | 78 | 135 | 4.0 | 5.0 | 0.00 | 0.00 | 0.00 | 80 | 1014.3 |
| 20260903072736 | 78 | 180 | 5.0 | 7.0 | 0.00 | 0.00 | 0.00 | 80 | 1014.4 |
| 20260903071716 | 79 | 158 | 3.0 | 4.0 | 0.00 | 0.00 | 0.00 | 79 | 1014.4 |
| 20260903070716 | 79 | 158 | 4.0 | 6.0 | 0.00 | 0.00 | 0.00 | 79 | 1014.5 |
| 20260903065756 | 78 | 180 | 3.0 | 5.0 | 0.00 | 0.00 | 0.00 | 80 | 1014.6 |
| 20260903064716 | 78 | 158 | 3.0 | 5.0 | 0.00 | 0.00 | 0.00 | 80 | 1014.6 |
| 20260903063716 | 79 | 158 | 2.0 | 4.0 | 0.00 | 0.00 | 0.00 | 80 | 1014.6 |
| 20260903062716 | 79 | 158 | 4.0 | 5.0 | 0.00 | 0.00 | 0.00 | 79 | 1014.6 |
| 20260903061736 | 79 | 135 | 3.0 | 4.0 | 0.00 | 0.00 | 0.00 | 80 | 1014.7 |
| 20260903060716 | 79 | 158 | 3.0 | 6.0 | 0.00 | 0.00 | 0.00 | 80 | 1014.7 |
| 20260903055736 | 79 | 158 | 3.0 | 5.0 | 0.00 | 0.00 | 0.00 | 80 | 1014.7 |
| 20260903054716 | 79 | 158 | 3.0 | 5.0 | 0.00 | 0.00 | 0.00 | 79 | 1014.7 |
| 20260903053736 | 80 | 135 | 2.0 | 4.0 | 0.00 | 0.00 | 0.00 | 79 | 1014.7 |
| 20260903052716 | 80 | 158 | 3.0 | 5.0 | 0.00 | 0.00 | 0.00 | 79 | 1014.6 |
| 20260903051717 | 80 | 158 | 3.0 | 5.0 | 0.00 | 0.00 | 0.00 | 80 | 1014.6 |
| 20260903050716 | 80 | 158 | 3.0 | 6.0 | 0.00 | 0.00 | 0.00 | 80 | 1014.6 |
| 20260903045716 | 80 | 158 | 4.0 | 6.0 | 0.00 | 0.00 | 0.00 | 80 | 1014.6 |
| 20260903044716 | 80 | 180 | 5.0 | 7.0 | 0.00 | 0.00 | 0.00 | 80 | 1014.6 |
| 20260903043716 | 80 | 158 | 3.0 | 5.0 | 0.00 | 0.00 | 0.00 | 79 | 1014.6 |
| 20260903042716 | 81 | 158 | 3.0 | 5.0 | 0.00 | 0.00 | 0.00 | 79 | 1014.5 |
| 20260903041716 | 81 | 158 | 3.0 | 4.0 | 0.00 | 0.00 | 0.00 | 78 | 1014.4 |
| 20260903040716 | 81 | 158 | 3.0 | 5.0 | 0.00 | 0.00 | 0.00 | 78 | 1014.4 |
| 20260903035736 | 82 | 158 | 4.0 | 7.0 | 0.00 | 0.00 | 0.00 | 77 | 1014.5 |
| 20260903034716 | 82 | 135 | 3.0 | 4.0 | 0.00 | 0.00 | 0.00 | 77 | 1014.6 |
| 20260903033736 | 82 | 158 | 2.0 | 4.0 | 0.00 | 0.00 | 0.00 | 76 | 1014.6 |
| 20260903032716 | 82 | 158 | 3.0 | 4.0 | 0.00 | 0.00 | 0.00 | 76 | 1014.5 |
| 20260903031736 | 83 | 158 | 4.0 | 8.0 | 0.00 | 0.00 | 0.00 | 76 | 1014.5 |
| 20260903030756 | 83 | 135 | 4.0 | 5.0 | 0.00 | 0.00 | 0.00 | 75 | 1014.5 |
| 20260903025716 | 83 | 135 | 4.0 | 6.0 | 0.00 | 0.00 | 0.00 | 75 | 1014.4 |
| 20260903024716 | 83 | 135 | 5.0 | 6.0 | 0.00 | 0.00 | 0.00 | 75 | 1014.3 |
| 20260903023736 | 83 | 135 | 3.0 | 7.0 | 0.00 | 0.00 | 0.00 | 76 | 1014.2 |
| 20260903022716 | 83 | 158 | 4.0 | 6.0 | 0.00 | 0.00 | 0.00 | 76 | 1014.2 |
| 20260903021715 | 83 | 135 | 4.0 | 7.0 | 0.00 | 0.00 | 0.00 | 76 | 1014.2 |
| 20260903020716 | 84 | 135 | 4.0 | 6.0 | 0.00 | 0.00 | 0.00 | 77 | 1014.1 |
| 20260903015716 | 84 | 135 | 3.0 | 4.0 | 0.00 | 0.00 | 0.00 | 77 | 1014.1 |
| 20260903014715 | 84 | 158 | 3.0 | 5.0 | 0.00 | 0.00 | 0.00 | 77 | 1014.0 |
| 20260903013716 | 84 | 135 | 3.0 | 5.0 | 0.00 | 0.00 | 0.00 | 77 | 1014.0 |
| 20260903012715 | 85 | 135 | 3.0 | 5.0 | 0.00 | 0.00 | 0.00 | 76 | 1013.9 |
| 20260903011715 | 85 | 135 | 4.0 | 7.0 | 0.00 | 0.00 | 0.00 | 76 | 1013.9 |
| 20260903010715 | 85 | 135 | 4.0 | 5.0 | 0.00 | 0.00 | 0.00 | 76 | 1013.7 |
| 20260903005715 | 85 | 158 | 3.0 | 5.0 | 0.00 | 0.00 | 0.00 | 76 | 1013.7 |
| 20260903004735 | 86 | 158 | 4.0 | 7.0 | 0.00 | 0.00 | 0.00 | 76 | 1013.7 |
| 20260903003716 | 87 | 135 | 4.0 | 6.0 | 0.00 | 0.00 | 0.00 | 75 | 1013.7 |
| 20260903002716 | 87 | 158 | 4.0 | 5.0 | 0.00 | 0.00 | 0.00 | 75 | 1013.7 |
| 20260903001716 | 88 | 135 | 5.0 | 8.0 | 0.00 | 0.00 | 0.00 | 74 | 1013.8 |
| 20260903000716 | 89 | 158 | 3.0 | 5.0 | 0.00 | 0.00 | 0.00 | 73 | 1013.8 |
| 20260902235756 | 89 | 158 | 4.0 | 5.0 | 0.00 | 0.00 | 0.00 | 73 | 1013.9 |
| 20260902234716 | 90 | 158 | 2.0 | 4.0 | 0.00 | 0.00 | 0.00 | 71 | 1013.9 |
| 20260902233736 | 91 | 158 | 3.0 | 4.0 | 0.00 | 0.00 | 0.00 | 70 | 1013.9 |
| 20260902232716 | 91 | 203 | 2.0 | 3.0 | 0.00 | 0.00 | 0.00 | 69 | 1013.9 |
| 20260902231716 | 92 | 180 | 2.0 | 4.0 | 0.00 | 0.00 | 0.00 | 68 | 1014.0 |
| 20260902230716 | 92 | 158 | 4.0 | 6.0 | 0.00 | 0.00 | 0.00 | 66 | 1014.0 |
| 20260902225716 | 93 | 158 | 2.0 | 4.0 | 0.00 | 0.00 | 0.00 | 66 | 1014.1 |
| 20260902224717 | 93 | 180 | 4.0 | 6.0 | 0.00 | 0.00 | 0.00 | 63 | 1014.1 |
| 20260902223717 | 93 | 158 | 4.0 | 7.0 | 0.00 | 0.00 | 0.00 | 63 | 1014.2 |
| 20260902222716 | 93 | 158 | 6.0 | 8.0 | 0.00 | 0.00 | 0.00 | 62 | 1014.2 |
| 20260902221716 | 93 | 158 | 6.0 | 8.0 | 0.00 | 0.00 | 0.00 | 62 | 1014.3 |
| 20260902220716 | 94 | 158 | 4.0 | 5.0 | 0.00 | 0.00 | 0.00 | 62 | 1014.3 |
| 20260902215716 | 94 | 180 | 6.0 | 8.0 | 0.00 | 0.00 | 0.00 | 60 | 1014.4 |
| 20260902214716 | 94 | 135 | 5.0 | 8.0 | 0.00 | 0.00 | 0.00 | 61 | 1014.4 |
| 20260902213716 | 94 | 158 | 3.0 | 6.0 | 0.00 | 0.00 | 0.00 | 60 | 1014.5 |
| 20260902212717 | 94 | 203 | 4.0 | 8.0 | 0.00 | 0.00 | 0.00 | 60 | 1014.5 |
| 20260902211716 | 94 | 225 | 4.0 | 6.0 | 0.00 | 0.00 | 0.00 | 59 | 1014.6 |
| 20260902210736 | 94 | 135 | 4.0 | 7.0 | 0.00 | 0.00 | 0.00 | 60 | 1014.7 |
| 20260902205718 | 94 | 158 | 5.0 | 10.0 | 0.00 | 0.00 | 0.00 | 60 | 1014.7 |
| 20260902204716 | 94 | 158 | 3.0 | 5.0 | 0.00 | 0.00 | 0.00 | 63 | 1014.8 |
| 20260902203716 | 94 | 158 | 6.0 | 8.0 | 0.00 | 0.00 | 0.00 | 61 | 1014.9 |
| 20260902202716 | 94 | 158 | 5.0 | 8.0 | 0.00 | 0.00 | 0.00 | 61 | 1015.0 |
| 20260902201716 | 95 | 180 | 5.0 | 8.0 | 0.00 | 0.00 | 0.00 | 61 | 1015.0 |
| 20260902200716 | 94 | 180 | 5.0 | 8.0 | 0.00 | 0.00 | 0.00 | 62 | 1015.0 |
| 20260902195716 | 94 | 203 | 4.0 | 6.0 | 0.00 | 0.00 | 0.00 | 62 | 1015.2 |
| 20260902194716 | 93 | 180 | 6.0 | 9.0 | 0.00 | 0.00 | 0.00 | 60 | 1015.2 |
| 20260902193716 | 93 | 158 | 6.0 | 10.0 | 0.00 | 0.00 | 0.00 | 61 | 1015.3 |
| 20260902192716 | 93 | 203 | 4.0 | 7.0 | 0.00 | 0.00 | 0.00 | 62 | 1015.5 |
| 20260902191716 | 93 | 203 | 4.0 | 6.0 | 0.00 | 0.00 | 0.00 | 61 | 1015.4 |
| 20260902185716 | 92 | 158 | 3.0 | 5.0 | 0.00 | 0.00 | 0.00 | 65 | 1015.7 |
| 20260902184715 | 92 | 158 | 3.0 | 7.0 | 0.00 | 0.00 | 0.00 | 64 | 1015.8 |
| 20260902183716 | 92 | 203 | 6.0 | 8.0 | 0.00 | 0.00 | 0.00 | 62 | 1015.9 |
| 20260902182716 | 92 | 180 | 7.0 | 10.0 | 0.00 | 0.00 | 0.00 | 63 | 1016.0 |
| 20260902181716 | 91 | 225 | 5.0 | 9.0 | 0.00 | 0.00 | 0.00 | 63 | 1016.0 |
| 20260902180716 | 92 | 180 | 2.0 | 9.0 | 0.00 | 0.00 | 0.00 | 61 | 1016.1 |
| 20260902175716 | 92 | 248 | 6.0 | 9.0 | 0.00 | 0.00 | 0.00 | 60 | 1016.2 |
| 20260902174716 | 92 | 180 | 4.0 | 6.0 | 0.00 | 0.00 | 0.00 | 61 | 1016.3 |
| 20260902173716 | 91 | 225 | 3.0 | 6.0 | 0.00 | 0.00 | 0.00 | 62 | 1016.4 |
| 20260902172715 | 91 | 158 | 4.0 | 7.0 | 0.00 | 0.00 | 0.00 | 63 | 1016.4 |
| 20260902171715 | 90 | 180 | 5.0 | 8.0 | 0.00 | 0.00 | 0.00 | 63 | 1016.5 |
| 20260902170735 | 90 | 158 | 1.0 | 3.0 | 0.00 | 0.00 | 0.00 | 64 | 1016.6 |
| 20260902165735 | 90 | 203 | 7.0 | 10.0 | 0.00 | 0.00 | 0.00 | 63 | 1016.7 |
| 20260902164715 | 89 | 203 | 4.0 | 6.0 | 0.00 | 0.00 | 0.00 | 65 | 1016.7 |
| 20260902163735 | 89 | 180 | 3.0 | 6.0 | 0.00 | 0.00 | 0.00 | 64 | 1016.8 |
| 20260902162715 | 88 | 203 | 3.0 | 6.0 | 0.00 | 0.00 | 0.00 | 67 | 1016.9 |
| 20260902161715 | 88 | 203 | 5.0 | 6.0 | 0.00 | 0.00 | 0.00 | 65 | 1016.9 |
| 20260902160715 | 88 | 225 | 3.0 | 5.0 | 0.00 | 0.00 | 0.00 | 65 | 1017.0 |
| 20260902155717 | 87 | 225 | 1.0 | 2.0 | 0.00 | 0.00 | 0.00 | 67 | 1017.0 |
| 20260902154717 | 87 | 248 | 3.0 | 7.0 | 0.00 | 0.00 | 0.00 | 66 | 1017.0 |
| 20260902153717 | 86 | 203 | 3.0 | 5.0 | 0.00 | 0.00 | 0.00 | 69 | 1016.8 |
| 20260902152717 | 85 | 203 | 3.0 | 6.0 | 0.00 | 0.00 | 0.00 | 71 | 1016.7 |
| 20260902151717 | 85 | 293 | 4.0 | 8.0 | 0.00 | 0.00 | 0.00 | 70 | 1016.8 |
| 20260902150717 | 84 | 203 | 2.0 | 4.0 | 0.00 | 0.00 | 0.00 | 72 | 1016.4 |
| 20260902145737 | 84 | 293 | 6.0 | 9.0 | 0.00 | 0.00 | 0.00 | 73 | 1016.8 |
| 20260902144717 | 83 | 180 | 4.0 | 7.0 | 0.00 | 0.00 | 0.00 | 74 | 1016.5 |
| 20260902143717 | 82 | 270 | 5.0 | 7.0 | 0.00 | 0.00 | 0.00 | 75 | 1016.6 |
| 20260902142717 | 82 | 293 | 9.0 | 11.0 | 0.00 | 0.00 | 0.00 | 76 | 1016.8 |
| 20260902141737 | 81 | 203 | 4.0 | 8.0 | 0.00 | 0.00 | 0.00 | 77 | 1016.2 |
| 20260902140717 | 81 | 180 | 7.0 | 9.0 | 0.00 | 0.00 | 0.00 | 76 | 1016.1 |
| 20260902135717 | 80 | 225 | 5.0 | 7.0 | 0.00 | 0.00 | 0.00 | 77 | 1016.1 |
| 20260902134717 | 79 | 225 | 3.0 | 7.0 | 0.00 | 0.00 | 0.00 | 78 | 1016.1 |